[[{"header":{"parameterUnit":"m.s-1","parameterCategory":2,"la1":30.2991,"la2":30.254,"lo1":-89.0895,"lo2":-89.0444,"dy":0.0017,"dx":0.0017,"nx":28,"ny":28,"refTime":"2025-07-23T09:00:00:Z","depth":"0","parameterNumber":2,"parameterNumberName":"U-component_of_CURRENTS"},"data":[0,0,0,0,0,0,0,0,0,0,0,0,0,0,0,0,0,0,0,0,0,0,0,0,0,0,0,0,0,0,0,0,0,0,0,0,0,0,0,0,0,0,0,0,0,0,0,0,0,0,0,0,0,0,0,0,0,0,0.2335,0.2335,0,0.2351,0.2351,0.2352,0.2348,0.2348,0.2347,0.2347,0.232,0.232,0.232,0,0,0,0,0,0,0,0,0,0,0,0,0,0.2355,0.2354,0.2335,0.2335,0.2335,0.2351,0.2351,0.2352,0.2348,0.2348,0.2347,0.2347,0.232,0.232,0.232,0,0,0,0,0,0,0,0,0,0,0,0,0,0.2358,0.2354,0.2335,0.2333,0.2333,0.2351,0.2351,0.2352,0.2348,0.2348,0.2347,0.2346,0.232,0.232,0.232,0.2332,0,0,0.2319,0.2318,0,0,0,0,0,0,0,0,0.2358,0.2357,0.2333,0.2333,0.2333,0.2345,0.2349,0.2343,0.2349,0.2345,0.2347,0.2346,0.2324,0.2323,0.2331,0.2331,0.233,0.2319,0.2318,0.2318,0.2318,0,0,0,0,0,0,0,0.2357,0.2357,0.2343,0.2333,0.2333,0.235,0.235,0.2348,0.2339,0.2345,0.2344,0.2343,0.2324,0.2332,0.2331,0.233,0.2319,0.2318,0.2318,0.2318,0.2363,0.2365,0,0,0,0,0,0,0.2349,0.2356,0.2343,0.2343,0.2341,0.235,0.235,0.2344,0.234,0.2338,0.2344,0.2343,0.2333,0.2331,0.233,0.2379,0.2318,0.2318,0.2318,0.2362,0.2364,0.2365,0,0,0,0,0,0,0.2349,0.2347,0.2342,0.2349,0.2349,0.235,0.2344,0.2344,0.2349,0.2339,0.2337,0.2347,0.2332,0.233,0.2324,0.2377,0.2318,0.2317,0.236,0.2362,0.2364,0.2456,0,0,0,0,0,0,0.235,0.2347,0.2347,0.2348,0.2348,0.2363,0.2344,0.2345,0.2349,0.2348,0.2341,0.2339,0.2331,0.2324,0.2323,0.2375,0.2317,0.2358,0.2361,0.2364,0.2451,0.2461,0.247,0,0,0,0,0,0.235,0.2356,0.2346,0.2345,0.2345,0.2364,0.2367,0.2366,0.235,0.2365,0.2347,0.2339,0.2342,0.2324,0.2323,0.2376,0.2357,0.236,0.2364,0.2447,0.2459,0.2469,0,0,0,0,0,0,0.2368,0.2356,0.2346,0.2347,0.2357,0.2363,0.2376,0.2367,0.2367,0.2364,0.2342,0.2339,0.2361,0.2346,0.2328,0.2397,0.2354,0.2358,0.2419,0.243,0.2439,0.2448,0.2317,0,0,0,0,0,0.2369,0.2368,0.2364,0.2369,0.2372,0.2372,0.2378,0.238,0.2377,0.2377,0.2372,0.2369,0.2376,0.2381,0.2384,0.241,0.2417,0.2447,0.2456,0.2464,0.247,0.2531,0.2546,0.2376,0.2376,0.2376,0,0,0.2374,0.2371,0.2368,0.2373,0.2378,0.2405,0.2375,0.2394,0.2425,0.2373,0.241,0.2396,0.2387,0.2424,0.2434,0.2417,0.2516,0.2468,0.2475,0.2477,0.2536,0.2553,0.2568,0.2378,0.2377,0.2377,0,0,0.2396,0.2385,0.2393,0.2408,0.2421,0.2432,0.2435,0.2447,0.2461,0.2481,0.2463,0.2472,0.2477,0.2497,0.2501,0.2559,0.2559,0.2565,0.2625,0.2685,0.27,0.2713,0.2744,0.276,0.2575,0.2575,0.2575,0,0.2405,0.2413,0.2404,0.2427,0.2446,0.2444,0.2475,0.25,0.2512,0.2526,0.2503,0.2526,0.2521,0.2571,0.2596,0.2585,0.2603,0.2586,0.2699,0.2712,0.2724,0.2753,0.2769,0.258,0.2579,0.2579,0.2578,0,0.2433,0.2449,0.2463,0.249,0.2514,0.2543,0.2572,0.2602,0.2606,0.2622,0.2659,0.2649,0.2663,0.2675,0.2651,0.2739,0.2719,0.2702,0.2675,0.2747,0.2772,0.2787,0.2587,0.2585,0.2584,0.2583,0,0,0.2423,0.2471,0.2474,0.2503,0.2549,0.2573,0.2636,0.2685,0.2721,0.2741,0.2785,0.2808,0.2794,0.2797,0.2784,0.2832,0.2934,0.2807,0.2808,0.2845,0.3053,0.2798,0.2789,0.2941,0.2944,0.2947,0.3037,0,0.2447,0.2502,0.252,0.2589,0.2624,0.2654,0.2711,0.2759,0.2791,0.284,0.285,0.2881,0.2847,0.2853,0.2903,0.2912,0.2977,0.291,0.2971,0.2972,0.2743,0.2799,0.2575,0.2615,0.3052,0.3054,0.3056,0,0.2463,0.2503,0.2567,0.2641,0.2656,0.27,0.278,0.2831,0.2902,0.2922,0.2959,0.2962,0.3021,0.2985,0.307,0.3027,0.306,0.307,0.3074,0.2812,0.2744,0.2612,0.2625,0.2512,0.3078,0.3076,0.3075,0,0.2463,0.2533,0.2587,0.2613,0.2699,0.2733,0.2775,0.2849,0.2899,0.2975,0.3008,0.3065,0.3089,0.3144,0.3126,0.3129,0.3199,0.3212,0.3024,0.3007,0.2811,0.2768,0.272,0.3315,0.3315,0.3314,0.3314,0,0.2486,0.2534,0.2589,0.2626,0.2695,0.2739,0.2817,0.2867,0.2941,0.3002,0.3045,0.3093,0.3134,0.3155,0.3168,0.309,0.3238,0.3036,0.3014,0.283,0.279,0.2673,0.2655,0.3318,0.3317,0.3316,0.3316,0,0.2506,0.2535,0.2605,0.2679,0.2703,0.2752,0.2839,0.2898,0.2954,0.3036,0.3062,0.3136,0.3135,0.3124,0.3186,0.3104,0.2957,0.3036,0.2779,0.272,0.2385,0.238,0.2278,0.2241,0.2863,0.2857,0.2852,0,0.253,0.2566,0.2639,0.2678,0.2718,0.2788,0.2844,0.2905,0.2962,0.3053,0.3094,0.3111,0.3109,0.3031,0.2862,0.2775,0.2776,0.2528,0.2481,0.2317,0.2302,0.2297,0.2279,0.2294,0.2285,0.2277,0.2271,0,0.2598,0.2613,0.2673,0.2738,0.2792,0.2846,0.2914,0.2951,0.3018,0.3056,0.3093,0.3091,0.2938,0.2683,0.2476,0.2413,0.2325,0.2366,0.2304,0.1914,0.1808,0.1774,0.2283,0.2205,0.2212,0.2217,0.222,0.2223,0.2654,0.2699,0.276,0.282,0.2864,0.2892,0.2903,0.2945,0.298,0.2952,0.3026,0.2881,0.2551,0.2195,0.2095,0.1663,0.1866,0.1571,0.1607,0.164,0.1488,0.1793,0.1598,0.1601,0.1603,0.1606,0.1608,0,0.274,0.2786,0.2845,0.2893,0.2914,0.2922,0.2948,0.2905,0.2879,0.2784,0.2743,0.2298,0.1949,0.1636,0.1103,0.093,0.0984,0.089,0.0898,0.095,0.1301,0.115,0.0714,0.0714,0.0714,0.0714,0.0714,0.0715,0.279,0.2876,0.2892,0.2932,0.2938,0.2889,0.2865,0.2765,0.265,0.231,0.1978,0.1817,0.1382,0.0841,0.0437,0.041,0.0449,0.0325,0.0492,0.0757,0.0827,0.0893,0.0747,0.0233,0.0233,0.008,0.0079,0.0077]},{"header":{"parameterUnit":"m.s-1","parameterCategory":2,"la1":30.2991,"la2":30.254,"lo1":-89.0895,"lo2":-89.0444,"dy":0.0017,"dx":0.0017,"nx":28,"ny":28,"refTime":"2025-07-23T09:00:00:Z","depth":"0","parameterNumber":3,"parameterNumberName":"V-component_of_CURRENTS"},"data":[0,0,0,0,0,0,0,0,0,0,0,0,0,0,0,0,0,0,0,0,0,0,0,0,0,0,0,0,0,0,0,0,0,0,0,0,0,0,0,0,0,0,0,0,0,0,0,0,0,0,0,0,0,0,0,0,0,0,0.0043,0.0043,0,0.0058,0.0058,0.0058,0.005,0.005,0.005,0.0049,0.008,0.0081,0.0082,0,0,0,0,0,0,0,0,0,0,0,0,0,0.002,0.0021,0.0043,0.0043,0.0043,0.0058,0.0058,0.0058,0.0051,0.005,0.005,0.0049,0.0079,0.0081,0.0082,0,0,0,0,0,0,0,0,0,0,0,0,0,0.0032,0.0021,0.0043,0.0041,0.0041,0.0058,0.0058,0.0058,0.0051,0.005,0.005,0.0049,0.0079,0.0081,0.0082,0.0104,0,0,0.0088,0.0088,0,0,0,0,0,0,0,0,0.0031,0.0033,0.0041,0.0042,0.0042,0.0052,0.0061,0.0074,0.0051,0.0047,0.0049,0.0049,0.0073,0.0075,0.0078,0.0105,0.0107,0.0088,0.0089,0.009,0.009,0,0,0,0,0,0,0,0.003,0.0032,0.0048,0.0042,0.0042,0.0044,0.0045,0.0064,0.0063,0.0047,0.0047,0.0049,0.0073,0.0076,0.0079,0.0107,0.0088,0.0089,0.009,0.0091,0.018,0.0181,0,0,0,0,0,0,0.0029,0.0031,0.0048,0.0049,0.0035,0.0045,0.0046,0.0049,0.0062,0.0064,0.0049,0.0049,0.0074,0.0077,0.008,0.0116,0.009,0.0091,0.0092,0.0179,0.018,0.0182,0,0,0,0,0,0,0.0029,0.003,0.0047,0.0041,0.0043,0.0046,0.0049,0.005,0.0054,0.0064,0.0065,0.0054,0.0073,0.0077,0.0103,0.0117,0.0092,0.0093,0.0177,0.0179,0.0181,0.0183,0,0,0,0,0,0,0.0028,0.003,0.0033,0.004,0.0043,0.0062,0.005,0.005,0.0057,0.0056,0.0069,0.0071,0.0073,0.0101,0.0105,0.0119,0.0095,0.0176,0.0178,0.0181,0.0182,0.0185,0.0188,0,0,0,0,0,0.0027,0.0034,0.0033,0.0035,0.0046,0.0063,0.0065,0.0065,0.0058,0.0066,0.0075,0.007,0.012,0.0103,0.0108,0.0123,0.0174,0.0177,0.018,0.018,0.0184,0.0188,0,0,0,0,0,0,0.0025,0.0035,0.0033,0.0042,0.0054,0.0062,0.0069,0.0069,0.0082,0.008,0.0085,0.0089,0.0118,0.0126,0.0107,0.0159,0.0148,0.0152,0.0146,0.015,0.0154,0.0159,0.0096,0,0,0,0,0,0.0026,0.0035,0.0044,0.0053,0.0058,0.0064,0.007,0.0072,0.0083,0.0088,0.0096,0.0112,0.0135,0.0145,0.0166,0.0192,0.0226,0.0208,0.0211,0.0214,0.0223,0.0318,0.0331,0.0192,0.0192,0.0192,0,0,0.0026,0.0034,0.0038,0.0053,0.006,0.0073,0.0066,0.0079,0.0089,0.0091,0.0108,0.0125,0.0147,0.0175,0.019,0.0181,0.0265,0.0217,0.0219,0.0228,0.0323,0.0336,0.0349,0.0194,0.0193,0.0193,0,0,0.0036,0.0039,0.0051,0.0062,0.0077,0.0082,0.0087,0.0099,0.0103,0.0127,0.0131,0.0162,0.0186,0.0209,0.0223,0.0262,0.0282,0.0263,0.028,0.0372,0.0385,0.0396,0.0426,0.044,0.0262,0.0262,0.0262,0,0.0036,0.0049,0.0058,0.0073,0.0078,0.0087,0.0098,0.0111,0.0129,0.0137,0.0135,0.0194,0.0208,0.0254,0.0263,0.027,0.0306,0.0257,0.0377,0.0389,0.0401,0.0429,0.0445,0.0263,0.0263,0.0263,0.0263,0,0.0056,0.0064,0.0073,0.0092,0.0102,0.0114,0.0129,0.0141,0.0146,0.0159,0.0203,0.0234,0.0268,0.0279,0.028,0.0361,0.0353,0.0371,0.0364,0.0415,0.0441,0.0457,0.0263,0.0263,0.0263,0.0263,0,0,0.0056,0.008,0.0083,0.0085,0.0108,0.0116,0.0139,0.0159,0.0176,0.0205,0.0242,0.0284,0.03,0.0319,0.0334,0.0408,0.0505,0.042,0.0425,0.0443,0.0673,0.061,0.0621,0.0552,0.0555,0.0558,0.0646,0,0.0065,0.0085,0.0099,0.0113,0.0117,0.0131,0.0151,0.0172,0.0196,0.0237,0.0281,0.0326,0.0315,0.0341,0.0412,0.0506,0.0554,0.0477,0.0627,0.063,0.0565,0.0641,0.0629,0.0703,0.0662,0.0665,0.0667,0,0.0078,0.0085,0.0096,0.0109,0.0114,0.0127,0.0152,0.0174,0.0232,0.0255,0.0308,0.0346,0.0445,0.0437,0.0607,0.0563,0.0606,0.0667,0.0672,0.0629,0.06,0.0654,0.0734,0.073,0.0692,0.069,0.0688,0,0.0059,0.0081,0.0083,0.0089,0.0111,0.0118,0.0134,0.0176,0.0211,0.0277,0.0329,0.0421,0.0507,0.0601,0.0698,0.0673,0.0888,0.087,0.0837,0.083,0.0857,0.0847,0.0951,0.0972,0.0972,0.0972,0.0972,0,0.0055,0.0056,0.0073,0.0072,0.0086,0.0102,0.0136,0.016,0.0231,0.0306,0.0341,0.0443,0.0566,0.0686,0.0739,0.0847,0.092,0.0857,0.087,0.085,0.0839,0.0865,0.0858,0.0975,0.0975,0.0974,0.0973,0,0.0034,0.0045,0.0051,0.0069,0.0077,0.0086,0.0144,0.0188,0.0237,0.0348,0.0381,0.0513,0.0678,0.0756,0.0934,0.0913,0.1013,0.1004,0.0933,0.0935,0.0866,0.0859,0.0984,0.1019,0.0991,0.099,0.099,0,0.0026,0.0024,0.0046,0.0069,0.0079,0.0103,0.0144,0.0188,0.0252,0.0409,0.0484,0.0642,0.0795,0.0978,0.0985,0.1042,0.104,0.0996,0.0938,0.0877,0.0883,0.0879,0.09,0.0966,0.0965,0.0964,0.0964,0,0.0013,0.0021,0.0035,0.0077,0.0114,0.0164,0.0222,0.0271,0.0364,0.0471,0.0663,0.08,0.0945,0.1041,0.1043,0.1048,0.0995,0.0979,0.0987,0.0929,0.0873,0.0906,0.0842,0.0959,0.0959,0.0959,0.096,0.096,0.0018,0.0028,0.0058,0.0096,0.0155,0.0235,0.0286,0.0389,0.0509,0.071,0.0802,0.1032,0.1069,0.1103,0.1079,0.0948,0.0982,0.0908,0.092,0.0932,0.0931,0.0805,0.0887,0.0887,0.0887,0.0887,0.0887,0,0.0031,0.0046,0.0085,0.0147,0.0227,0.0248,0.0358,0.0444,0.0611,0.083,0.1016,0.1152,0.1189,0.1145,0.097,0.0908,0.091,0.0883,0.0909,0.0947,0.0907,0.0868,0.0866,0.0866,0.0866,0.0866,0.0866,0.0866,0.0042,0.007,0.0083,0.0196,0.0258,0.0368,0.0437,0.0589,0.0748,0.1007,0.1157,0.1268,0.119,0.1028,0.0914,0.0893,0.0934,0.0892,0.094,0.0911,0.0915,0.0918,0.0881,0.0882,0.0882,0.0992,0.0993,0.0993]}],[{"header":{"parameterUnit":"m.s-1","parameterCategory":2,"la1":30.2991,"la2":30.254,"lo1":-89.0895,"lo2":-89.0444,"dy":0.0017,"dx":0.0017,"nx":28,"ny":28,"refTime":"2025-07-23T09:00:00:Z","depth":"2","parameterNumber":2,"parameterNumberName":"U-component_of_CURRENTS"},"data":[0,0,0,0,0,0,0,0,0,0,0,0,0,0,0,0,0,0,0,0,0,0,0,0,0,0,0,0,0,0,0,0,0,0,0,0,0,0,0,0,0,0,0,0,0,0,0,0,0,0,0,0,0,0,0,0,0,0,0.1419,0.1419,0,0.1402,0.1402,0.1401,0.141,0.1411,0.1411,0.1412,0.1449,0.145,0.145,0,0,0,0,0,0,0,0,0,0,0,0,0,0.1452,0.1452,0.1419,0.1419,0.1419,0.1402,0.1402,0.1401,0.141,0.1411,0.1411,0.1412,0.1449,0.1449,0.145,0,0,0,0,0,0,0,0,0,0,0,0,0,0.1437,0.1451,0.1419,0.1421,0.1421,0.1402,0.1402,0.1401,0.141,0.1411,0.1412,0.1412,0.1449,0.1449,0.145,0.1441,0,0,0.1453,0.1453,0,0,0,0,0,0,0,0,0.1438,0.1435,0.1421,0.1421,0.1421,0.1409,0.1427,0.1418,0.141,0.1414,0.1412,0.1413,0.144,0.1442,0.1436,0.1443,0.1445,0.1453,0.1453,0.1454,0.1454,0,0,0,0,0,0,0,0.1439,0.1436,0.1412,0.1421,0.1421,0.142,0.1419,0.1425,0.1424,0.1414,0.1415,0.1413,0.1441,0.1435,0.1437,0.1445,0.1453,0.1454,0.1454,0.1454,0.1559,0.1561,0,0,0,0,0,0,0.144,0.1437,0.1413,0.1412,0.1431,0.1419,0.1418,0.1412,0.1423,0.1425,0.1412,0.1413,0.1433,0.1436,0.1439,0.1495,0.1454,0.1455,0.1455,0.1556,0.1559,0.1562,0,0,0,0,0,0,0.1441,0.1438,0.1413,0.1424,0.1421,0.1418,0.1412,0.1411,0.1425,0.1421,0.1424,0.1428,0.1434,0.1438,0.1466,0.1494,0.1455,0.1456,0.1554,0.1557,0.156,0.1565,0,0,0,0,0,0,0.1442,0.1438,0.144,0.1424,0.1421,0.142,0.1411,0.1411,0.1421,0.1423,0.1436,0.1439,0.1435,0.1465,0.1467,0.1494,0.1456,0.1551,0.1555,0.1559,0.1562,0.1568,0.1574,0,0,0,0,0,0.1443,0.144,0.144,0.1438,0.1421,0.142,0.1419,0.1419,0.1422,0.1433,0.1444,0.1439,0.1495,0.1467,0.1469,0.1497,0.1549,0.1554,0.1559,0.156,0.1567,0.1573,0,0,0,0,0,0,0.1457,0.144,0.144,0.1433,0.1436,0.1422,0.1427,0.1429,0.1444,0.1451,0.1451,0.1455,0.1498,0.1502,0.1472,0.1547,0.1528,0.1534,0.1528,0.1535,0.1541,0.1522,0.1457,0,0,0,0,0,0.146,0.1454,0.1446,0.1444,0.1444,0.144,0.1442,0.1445,0.145,0.1458,0.1461,0.1484,0.1517,0.1529,0.1551,0.1576,0.1593,0.1606,0.1612,0.1616,0.1607,0.1701,0.1714,0.1578,0.1578,0.1578,0,0,0.1466,0.1455,0.1454,0.1447,0.1446,0.1442,0.1444,0.1452,0.1454,0.146,0.1469,0.1502,0.1532,0.1567,0.1587,0.1573,0.1657,0.1623,0.1625,0.1614,0.1708,0.172,0.1732,0.1582,0.1581,0.1581,0,0,0.1466,0.1466,0.1459,0.1459,0.146,0.1459,0.1467,0.1464,0.1472,0.1487,0.1507,0.1548,0.1577,0.1602,0.1621,0.1674,0.1689,0.1703,0.1705,0.1796,0.1808,0.1818,0.1815,0.1825,0.17,0.17,0.17,0,0.1479,0.146,0.1461,0.1452,0.1451,0.1468,0.1464,0.1472,0.148,0.1493,0.1497,0.1576,0.159,0.165,0.1668,0.1682,0.1718,0.1668,0.1801,0.1812,0.1823,0.1818,0.1829,0.1701,0.17,0.17,0.17,0,0.146,0.1456,0.1454,0.1445,0.1449,0.1454,0.1461,0.147,0.1486,0.1501,0.1566,0.1599,0.1649,0.1673,0.1677,0.1768,0.1761,0.18,0.1774,0.1836,0.1827,0.1839,0.1702,0.1701,0.1701,0.1701,0,0,0.1472,0.1446,0.1451,0.1446,0.1447,0.1452,0.1456,0.1474,0.1507,0.1529,0.1571,0.1628,0.167,0.1696,0.1733,0.1797,0.1875,0.1828,0.1833,0.1805,0.2031,0.1825,0.1817,0.1962,0.1965,0.1968,0.1979,0,0.1465,0.1448,0.1434,0.1434,0.143,0.1436,0.145,0.1473,0.1512,0.1557,0.1606,0.169,0.1677,0.1743,0.1791,0.1897,0.1914,0.1864,0.1992,0.1993,0.1789,0.1827,0.1677,0.1659,0.199,0.1992,0.1993,0,0.145,0.1445,0.1436,0.1437,0.1439,0.145,0.149,0.1505,0.1567,0.1605,0.1671,0.1736,0.1828,0.1824,0.1964,0.195,0.1966,0.2013,0.2017,0.183,0.1809,0.1664,0.1667,0.2012,0.201,0.2009,0.2008,0,0.1455,0.1448,0.1444,0.1441,0.1447,0.1457,0.1477,0.1533,0.157,0.1671,0.173,0.1834,0.1899,0.1999,0.2038,0.2054,0.2158,0.2202,0.1998,0.1981,0.1873,0.184,0.2253,0.2253,0.2253,0.2253,0.2253,0,0.1434,0.144,0.1458,0.1451,0.1478,0.1487,0.1541,0.1568,0.1647,0.1699,0.178,0.1847,0.196,0.2013,0.2064,0.2032,0.2177,0.198,0.1982,0.1862,0.183,0.2164,0.2154,0.2254,0.2253,0.2253,0.2253,0,0.1423,0.1424,0.144,0.1467,0.1471,0.1507,0.1558,0.1617,0.1691,0.1759,0.1809,0.1886,0.1959,0.1991,0.2108,0.2026,0.2068,0.1992,0.1773,0.1745,0.1819,0.181,0.1823,0.1816,0.1811,0.1806,0.1802,0,0.1421,0.1412,0.1455,0.1475,0.1487,0.1534,0.157,0.1633,0.1681,0.1778,0.1806,0.1874,0.1873,0.1891,0.1822,0.1799,0.1899,0.1576,0.1559,0.178,0.1783,0.1782,0.178,0.142,0.1413,0.1408,0.1403,0,0.1396,0.1415,0.1433,0.1477,0.1519,0.1561,0.1605,0.1629,0.1694,0.1732,0.1759,0.1779,0.1723,0.16,0.148,0.1461,0.1585,0.145,0.1818,0.1515,0.1392,0.1395,0.141,0.1353,0.1358,0.1362,0.1364,0.1366,0.1403,0.1423,0.1435,0.1484,0.1535,0.1566,0.1556,0.1585,0.1597,0.1569,0.1631,0.1554,0.1494,0.1246,0.1168,0.1069,0.121,0.1148,0.1171,0.12,0.1113,0.0983,0.0848,0.085,0.0852,0.0853,0.0855,0,0.1361,0.1388,0.1425,0.147,0.1504,0.1549,0.1556,0.1487,0.1428,0.1406,0.1361,0.114,0.1011,0.098,0.0749,0.0663,0.0725,0.0617,0.0732,0.078,0.0823,0.0724,0.0353,0.0351,0.035,0.0349,0,0,0.134,0.133,0.1348,0.1394,0.1456,0.1432,0.1419,0.1299,0.1212,0.1058,0.0972,0.0983,0.0961,0.0678,0.0588,0.0451,0.0627,0.0403,0.0805,0.0993,0.1036,0.1116,0.1013,0,0,0,0,0]},{"header":{"parameterUnit":"m.s-1","parameterCategory":2,"la1":30.2991,"la2":30.254,"lo1":-89.0895,"lo2":-89.0444,"dy":0.0017,"dx":0.0017,"nx":28,"ny":28,"refTime":"2025-07-23T09:00:00:Z","depth":"2","parameterNumber":3,"parameterNumberName":"V-component_of_CURRENTS"},"data":[0,0,0,0,0,0,0,0,0,0,0,0,0,0,0,0,0,0,0,0,0,0,0,0,0,0,0,0,0,0,0,0,0,0,0,0,0,0,0,0,0,0,0,0,0,0,0,0,0,0,0,0,0,0,0,0,0,0,0.0186,0.0186,0,0.0216,0.0217,0.0217,0.0221,0.0221,0.022,0.022,0.0243,0.0244,0.0245,0,0,0,0,0,0,0,0,0,0,0,0,0,0.0141,0.0142,0.0186,0.0186,0.0187,0.0216,0.0217,0.0217,0.0221,0.0221,0.022,0.022,0.0243,0.0244,0.0245,0,0,0,0,0,0,0,0,0,0,0,0,0,0.0165,0.0142,0.0186,0.0192,0.0193,0.0216,0.0217,0.0217,0.0221,0.022,0.022,0.022,0.0242,0.0244,0.0245,0.0261,0,0,0.0249,0.0249,0,0,0,0,0,0,0,0,0.0163,0.0166,0.0191,0.0192,0.0193,0.0214,0.0209,0.0232,0.0221,0.021,0.022,0.0219,0.0233,0.0235,0.0242,0.0262,0.0263,0.0249,0.025,0.025,0.0251,0,0,0,0,0,0,0,0.0162,0.0165,0.0198,0.0191,0.0193,0.0197,0.02,0.0214,0.0223,0.0211,0.0212,0.0215,0.0233,0.024,0.0242,0.0264,0.0249,0.025,0.0251,0.0251,0.0293,0.0293,0,0,0,0,0,0,0.0158,0.0164,0.0197,0.0199,0.0177,0.0198,0.0201,0.0208,0.0224,0.0226,0.0216,0.0215,0.0238,0.0241,0.0243,0.0267,0.025,0.0252,0.0252,0.0292,0.0293,0.0293,0,0,0,0,0,0,0.0157,0.0161,0.0196,0.0182,0.0186,0.0199,0.0207,0.0209,0.0215,0.0227,0.0229,0.022,0.0238,0.0241,0.0253,0.0267,0.0252,0.0253,0.0292,0.0293,0.0293,0.0312,0,0,0,0,0,0,0.0156,0.0161,0.0165,0.0182,0.0187,0.0212,0.0207,0.021,0.0218,0.0218,0.0231,0.0233,0.0238,0.0251,0.0255,0.0269,0.0254,0.0292,0.0292,0.0293,0.0311,0.0313,0.0315,0,0,0,0,0,0.0154,0.0163,0.0165,0.0169,0.0192,0.0212,0.0216,0.0223,0.0219,0.0226,0.023,0.0232,0.0257,0.0253,0.0257,0.0271,0.0291,0.0292,0.0293,0.031,0.0312,0.0315,0,0,0,0,0,0,0.0142,0.0165,0.0167,0.0181,0.0196,0.0213,0.0221,0.0224,0.0234,0.0232,0.0238,0.024,0.0256,0.026,0.0254,0.0284,0.0275,0.0276,0.0286,0.0289,0.0291,0.0308,0.0255,0,0,0,0,0,0.0143,0.0156,0.0175,0.0185,0.0193,0.0206,0.0215,0.022,0.0231,0.0235,0.0245,0.0253,0.0263,0.0271,0.0281,0.03,0.0314,0.031,0.0312,0.0314,0.033,0.0378,0.0386,0.0295,0.0295,0.0295,0,0,0.014,0.0154,0.0161,0.0184,0.0196,0.0216,0.0211,0.0225,0.0242,0.0236,0.026,0.0261,0.0268,0.0287,0.0295,0.0292,0.034,0.0315,0.0316,0.0332,0.0379,0.0388,0.0397,0.0296,0.0296,0.0296,0,0,0.0147,0.0155,0.0172,0.0189,0.0209,0.022,0.0224,0.0244,0.0252,0.0271,0.027,0.0283,0.0298,0.0312,0.0319,0.0339,0.0347,0.0334,0.0363,0.0409,0.0417,0.0425,0.0425,0.0433,0.0337,0.0337,0.0337,0,0.0143,0.0168,0.0179,0.0202,0.0218,0.0223,0.0245,0.0257,0.0278,0.0296,0.028,0.0318,0.0316,0.0352,0.035,0.0346,0.0358,0.0353,0.0413,0.0421,0.0429,0.0428,0.0436,0.0338,0.0338,0.0338,0.0338,0,0.0167,0.0187,0.0199,0.0231,0.0249,0.0268,0.0287,0.0306,0.0312,0.0329,0.0362,0.0361,0.0393,0.0382,0.037,0.042,0.0403,0.0409,0.0411,0.044,0.0436,0.0444,0.034,0.0339,0.0339,0.0339,0,0,0.0159,0.0207,0.0211,0.0236,0.0267,0.0288,0.0316,0.0355,0.0396,0.0398,0.0458,0.0447,0.0456,0.0463,0.0453,0.0477,0.0516,0.0463,0.0465,0.0468,0.059,0.052,0.0521,0.0537,0.054,0.0541,0.0555,0,0.0175,0.0222,0.0242,0.0289,0.0314,0.0338,0.0376,0.041,0.0438,0.0499,0.0499,0.0549,0.0485,0.0514,0.0522,0.0536,0.0544,0.051,0.0558,0.0559,0.0498,0.0532,0.0526,0.0534,0.0563,0.0565,0.0566,0,0.0193,0.0224,0.0268,0.0334,0.035,0.0378,0.0452,0.0488,0.0561,0.059,0.0627,0.065,0.0682,0.0636,0.0653,0.0636,0.0612,0.0603,0.0604,0.0545,0.0506,0.0516,0.0548,0.058,0.0579,0.0578,0.0577,0,0.0187,0.0246,0.0282,0.0302,0.0372,0.0402,0.0442,0.0513,0.0577,0.0663,0.0737,0.0758,0.0802,0.0786,0.0737,0.0719,0.0752,0.0735,0.0638,0.0631,0.064,0.063,0.0754,0.0754,0.0754,0.0754,0.0754,0,0.0201,0.0233,0.0283,0.0307,0.0376,0.0413,0.0501,0.0552,0.0654,0.076,0.0788,0.0873,0.0849,0.0862,0.0794,0.0731,0.0797,0.0654,0.0645,0.0639,0.0629,0.0686,0.0678,0.0754,0.0754,0.0754,0.0754,0,0.0195,0.0226,0.0278,0.0346,0.0376,0.0424,0.0544,0.0627,0.0708,0.0854,0.0901,0.0983,0.0991,0.0932,0.091,0.0812,0.0761,0.0716,0.0678,0.0663,0.0591,0.0584,0.0636,0.0634,0.0632,0.0631,0.0629,0,0.0199,0.0225,0.0299,0.0353,0.0387,0.0467,0.0549,0.0641,0.075,0.092,0.1014,0.1066,0.1105,0.1011,0.0871,0.0744,0.0733,0.0638,0.0601,0.06,0.0587,0.0582,0.0577,0.061,0.0608,0.0607,0.0606,0,0.0223,0.0244,0.029,0.0389,0.0472,0.0573,0.0693,0.0792,0.0932,0.1036,0.1172,0.1209,0.1128,0.1,0.081,0.0717,0.0657,0.0609,0.0676,0.0622,0.0572,0.0559,0.0556,0.0597,0.0598,0.0599,0.0599,0.06,0.025,0.0287,0.0358,0.0449,0.0547,0.0687,0.0786,0.0921,0.1068,0.123,0.1243,0.1238,0.1129,0.085,0.0726,0.057,0.0585,0.0518,0.0524,0.053,0.0507,0.0455,0.0451,0.0452,0.0452,0.0452,0.0452,0,0.0326,0.0361,0.0434,0.0561,0.0672,0.0705,0.0899,0.0997,0.1156,0.1212,0.1264,0.1093,0.0967,0.0821,0.0587,0.0467,0.0477,0.0417,0.047,0.0479,0.0487,0.0464,0.0396,0.0396,0.0395,0.0395,0,0,0.0374,0.0458,0.0478,0.0647,0.0732,0.0892,0.0996,0.1111,0.117,0.1192,0.113,0.1099,0.0943,0.0759,0.0628,0.0506,0.051,0.0471,0.0526,0.0613,0.0622,0.0553,0.0528,0,0,0,0,0]}],[{"header":{"parameterUnit":"m.s-1","parameterCategory":2,"la1":30.2991,"la2":30.254,"lo1":-89.0895,"lo2":-89.0444,"dy":0.0017,"dx":0.0017,"nx":28,"ny":28,"refTime":"2025-07-23T09:00:00:Z","depth":"4","parameterNumber":2,"parameterNumberName":"U-component_of_CURRENTS"},"data":[0,0,0,0,0,0,0,0,0,0,0,0,0,0,0,0,0,0,0,0,0,0,0,0,0,0,0,0,0,0,0,0,0,0,0,0,0,0,0,0,0,0,0,0,0,0,0,0,0,0,0,0,0,0,0,0,0,0,0.053,0.053,0,0.0532,0.0532,0.0532,0.0542,0.0542,0.0543,0.0543,0.0537,0.0536,0.0536,0,0,0,0,0,0,0,0,0,0,0,0,0,0.0549,0.0548,0.053,0.053,0.0531,0.0532,0.0532,0.0532,0.0541,0.0542,0.0543,0.0544,0.0537,0.0537,0.0536,0,0,0,0,0,0,0,0,0,0,0,0,0,0.0541,0.0548,0.053,0.0539,0.054,0.0533,0.0532,0.0532,0.0541,0.0542,0.0543,0.0544,0.0538,0.0537,0.0536,0.0509,0,0,0.0532,0.0532,0,0,0,0,0,0,0,0,0.0541,0.0539,0.0537,0.0538,0.054,0.0542,0.0537,0.0525,0.0541,0.0536,0.0543,0.0545,0.054,0.0539,0.0531,0.0509,0.0509,0.0532,0.0531,0.0531,0.053,0,0,0,0,0,0,0,0.0542,0.054,0.0526,0.0538,0.0539,0.0549,0.0548,0.0534,0.0529,0.0537,0.0538,0.0546,0.054,0.0532,0.0531,0.0509,0.0532,0.0531,0.053,0.053,0.0588,0.059,0,0,0,0,0,0,0.0548,0.054,0.0526,0.0527,0.0548,0.0548,0.0547,0.0536,0.0529,0.0531,0.0545,0.0546,0.0533,0.0532,0.0531,0.0552,0.0531,0.053,0.0529,0.0585,0.0588,0.059,0,0,0,0,0,0,0.0548,0.0546,0.0526,0.0538,0.0537,0.0547,0.0535,0.0536,0.0551,0.0537,0.0537,0.0562,0.0534,0.0532,0.0552,0.055,0.0529,0.0528,0.0583,0.0586,0.0589,0.0562,0,0,0,0,0,0,0.0548,0.0546,0.055,0.0538,0.0537,0.0533,0.0534,0.0536,0.0555,0.0557,0.0551,0.055,0.0535,0.0554,0.0551,0.0548,0.0527,0.058,0.0584,0.0588,0.056,0.0563,0.0567,0,0,0,0,0,0.0549,0.0546,0.0549,0.0549,0.0538,0.0534,0.0534,0.0542,0.0555,0.0559,0.0572,0.0552,0.0579,0.0554,0.055,0.0547,0.0578,0.0583,0.0588,0.0558,0.0563,0.0567,0,0,0,0,0,0,0.0558,0.0547,0.055,0.0545,0.0548,0.0538,0.0547,0.0555,0.0565,0.0578,0.0565,0.0565,0.0582,0.0585,0.0559,0.0587,0.0581,0.0585,0.056,0.0564,0.0567,0.059,0.0526,0,0,0,0,0,0.0562,0.0557,0.0551,0.0551,0.0553,0.0555,0.056,0.0567,0.0573,0.0579,0.0575,0.0589,0.0595,0.0598,0.0602,0.0606,0.062,0.0614,0.0618,0.062,0.0643,0.0689,0.0698,0.0607,0.0607,0.0607,0,0,0.0568,0.0562,0.0561,0.0554,0.0555,0.055,0.0559,0.0573,0.0568,0.0576,0.0577,0.0595,0.0604,0.0611,0.062,0.0613,0.0646,0.0626,0.0627,0.065,0.0695,0.0704,0.0711,0.061,0.061,0.0609,0,0,0.0565,0.0569,0.0561,0.0559,0.0568,0.0568,0.0579,0.058,0.0582,0.0595,0.0602,0.0637,0.0634,0.0642,0.0645,0.0681,0.0664,0.0682,0.0706,0.0749,0.0756,0.0763,0.0743,0.0748,0.0681,0.0681,0.0681,0,0.0577,0.0553,0.0562,0.055,0.0545,0.0577,0.0563,0.0569,0.0579,0.0586,0.0603,0.0647,0.0652,0.0666,0.0688,0.0683,0.0692,0.0672,0.075,0.0757,0.0764,0.0743,0.0749,0.068,0.068,0.068,0.068,0,0.0557,0.0544,0.0542,0.053,0.053,0.053,0.0535,0.0552,0.0576,0.0586,0.0624,0.0652,0.069,0.0691,0.0699,0.0748,0.0728,0.0742,0.0725,0.0771,0.0746,0.0752,0.0679,0.0679,0.0679,0.068,0,0,0.0561,0.053,0.0531,0.051,0.0517,0.051,0.0519,0.0526,0.0545,0.0584,0.0611,0.0651,0.0702,0.0716,0.0732,0.0775,0.0815,0.0788,0.0791,0.0745,0.087,0.0782,0.078,0.0842,0.0844,0.0846,0.0812,0,0.0542,0.0498,0.0495,0.0467,0.0441,0.0468,0.0467,0.049,0.0527,0.0568,0.0627,0.0665,0.0695,0.0727,0.0781,0.0829,0.0842,0.0821,0.0857,0.0857,0.0755,0.079,0.0854,0.0817,0.0819,0.082,0.0821,0,0.0517,0.0485,0.0439,0.0412,0.0407,0.041,0.0429,0.0436,0.0507,0.0546,0.0624,0.0672,0.0757,0.0779,0.0875,0.0863,0.0872,0.0893,0.0892,0.0835,0.0785,0.0781,0.0833,0.0832,0.0831,0.083,0.083,0,0.0481,0.0448,0.0404,0.0392,0.0375,0.0378,0.0392,0.0439,0.0468,0.055,0.0611,0.0695,0.078,0.0827,0.0902,0.0892,0.0995,0.0973,0.0878,0.0869,0.0965,0.0959,0.1016,0.1016,0.1016,0.1016,0.1016,0,0.0437,0.0402,0.0391,0.0359,0.0344,0.0349,0.0372,0.04,0.0484,0.0539,0.0614,0.068,0.0813,0.0887,0.0909,0.093,0.0998,0.0892,0.0873,0.0948,0.0941,0.0966,0.096,0.1015,0.1015,0.1015,0.1015,0,0.038,0.0369,0.0323,0.031,0.0318,0.0311,0.0371,0.0402,0.0478,0.0565,0.06,0.0719,0.0806,0.0886,0.0971,0.0942,0.0951,0.0922,0.0973,0.0956,0.0774,0.0769,0.0792,0.0789,0.0787,0.0785,0.0783,0,0.0329,0.0297,0.0291,0.0292,0.0289,0.0305,0.0331,0.0398,0.0447,0.0571,0.0612,0.0724,0.0794,0.0846,0.0911,0.0913,0.09,0.0861,0.0842,0.0782,0.0761,0.0759,0.0757,0.0779,0.0778,0.0777,0.0777,0,0.0235,0.0252,0.0232,0.0245,0.0265,0.0272,0.0318,0.0359,0.0452,0.0541,0.0619,0.0655,0.0748,0.0803,0.0831,0.0822,0.0874,0.0834,0.0839,0.082,0.0766,0.0747,0.0748,0.0768,0.0769,0.077,0.0771,0,0.0188,0.0178,0.0187,0.02,0.0222,0.0225,0.0255,0.0321,0.0378,0.0533,0.0552,0.0656,0.0759,0.0751,0.0765,0.0774,0.0738,0.0679,0.0691,0.0701,0.0688,0.0607,0.0554,0,0,0,0,0,0.0137,0.0134,0.0142,0.0145,0.017,0.0176,0.0241,0.0286,0.0399,0.0444,0.0504,0.0573,0.0613,0.0643,0.0633,0.0676,0.0718,0.065,0.0651,0.072,0.073,0.0724,0,0,0,0,0,0,0.0112,0.0104,0.0122,0.0102,0.0101,0.0109,0.0144,0.0214,0.0249,0.0377,0.0418,0.0493,0.0556,0.063,0.0613,0.062,0.0591,0.0709,0.0705,0.0714,0.0723,0.0731,0.0729,0,0,0,0,0]},{"header":{"parameterUnit":"m.s-1","parameterCategory":2,"la1":30.2991,"la2":30.254,"lo1":-89.0895,"lo2":-89.0444,"dy":0.0017,"dx":0.0017,"nx":28,"ny":28,"refTime":"2025-07-23T09:00:00:Z","depth":"4","parameterNumber":3,"parameterNumberName":"V-component_of_CURRENTS"},"data":[0,0,0,0,0,0,0,0,0,0,0,0,0,0,0,0,0,0,0,0,0,0,0,0,0,0,0,0,0,0,0,0,0,0,0,0,0,0,0,0,0,0,0,0,0,0,0,0,0,0,0,0,0,0,0,0,0,0,0.0221,0.0221,0,0.0245,0.0245,0.0245,0.0267,0.0267,0.0267,0.0267,0.0311,0.0312,0.0313,0,0,0,0,0,0,0,0,0,0,0,0,0,0.0169,0.017,0.022,0.0221,0.0221,0.0245,0.0245,0.0245,0.0267,0.0267,0.0267,0.0268,0.0311,0.0312,0.0313,0,0,0,0,0,0,0,0,0,0,0,0,0,0.0192,0.0171,0.022,0.0235,0.0237,0.0245,0.0245,0.0245,0.0266,0.0267,0.0267,0.0268,0.031,0.0312,0.0313,0.0312,0,0,0.0317,0.0318,0,0,0,0,0,0,0,0,0.0191,0.0194,0.0233,0.0234,0.0236,0.0254,0.0243,0.0269,0.0266,0.0254,0.0267,0.0268,0.0294,0.0296,0.0299,0.0314,0.0316,0.0317,0.0318,0.0319,0.0319,0,0,0,0,0,0,0,0.0189,0.0193,0.023,0.0233,0.0235,0.0233,0.0236,0.0248,0.0271,0.0256,0.0257,0.0261,0.0295,0.0297,0.03,0.0317,0.0317,0.0318,0.0319,0.032,0.0344,0.0344,0,0,0,0,0,0,0.0188,0.0191,0.0229,0.023,0.0215,0.0233,0.0238,0.0247,0.0271,0.0275,0.026,0.0262,0.0295,0.0299,0.0302,0.0325,0.0319,0.032,0.0321,0.0344,0.0344,0.0344,0,0,0,0,0,0,0.0187,0.0192,0.0228,0.0211,0.0216,0.0234,0.0244,0.0247,0.0258,0.0274,0.0279,0.0269,0.0296,0.03,0.0313,0.0326,0.032,0.0322,0.0345,0.0344,0.0344,0.0358,0,0,0,0,0,0,0.0186,0.0191,0.0196,0.0212,0.0217,0.024,0.0244,0.0247,0.0259,0.0261,0.0283,0.0287,0.0296,0.0311,0.0314,0.0328,0.0323,0.0345,0.0345,0.0344,0.0357,0.0358,0.0358,0,0,0,0,0,0.0184,0.0192,0.0196,0.0201,0.0224,0.024,0.0243,0.0256,0.0259,0.0267,0.0275,0.0287,0.0312,0.0312,0.0316,0.033,0.0345,0.0345,0.0344,0.0357,0.0358,0.0358,0,0,0,0,0,0,0.0172,0.0196,0.0201,0.0216,0.0229,0.0245,0.0251,0.0258,0.027,0.0271,0.0285,0.029,0.0305,0.0311,0.0311,0.0334,0.033,0.0331,0.0338,0.0339,0.034,0.0353,0.0324,0,0,0,0,0,0.0171,0.0186,0.0204,0.0216,0.0222,0.0236,0.0243,0.0253,0.0265,0.0271,0.0286,0.0297,0.0305,0.0317,0.0324,0.034,0.0327,0.035,0.035,0.0351,0.0363,0.0347,0.0347,0.0343,0.0343,0.0343,0,0,0.0168,0.0185,0.0192,0.0215,0.0225,0.0241,0.0242,0.0255,0.0271,0.0273,0.0298,0.03,0.0307,0.0323,0.0331,0.0332,0.0341,0.035,0.0351,0.0363,0.0347,0.0347,0.0348,0.0343,0.0343,0.0343,0,0,0.0175,0.0186,0.0201,0.0215,0.0234,0.0244,0.0249,0.0268,0.0278,0.0295,0.0298,0.0307,0.0326,0.0335,0.034,0.0347,0.034,0.035,0.0372,0.0356,0.0356,0.0357,0.0321,0.0318,0.0355,0.0355,0.0355,0,0.0171,0.0199,0.0206,0.0226,0.0244,0.0247,0.027,0.0276,0.0298,0.0311,0.0306,0.0329,0.0333,0.0354,0.0356,0.0351,0.0333,0.0371,0.0357,0.0357,0.0357,0.0321,0.0318,0.0355,0.0355,0.0355,0.0355,0,0.0191,0.0216,0.0225,0.0256,0.027,0.0291,0.0303,0.0318,0.0327,0.0336,0.0356,0.0353,0.0374,0.0369,0.0367,0.0376,0.0357,0.0355,0.0358,0.0359,0.032,0.0317,0.0356,0.0356,0.0356,0.0356,0,0,0.0183,0.0232,0.0237,0.0266,0.0293,0.0311,0.0332,0.036,0.038,0.0385,0.0411,0.0414,0.0413,0.0419,0.0413,0.04,0.0373,0.0382,0.0381,0.0351,0.0321,0.0318,0.0313,0.0368,0.0368,0.0368,0.0287,0,0.0202,0.0258,0.0271,0.032,0.0352,0.0365,0.0388,0.0407,0.0418,0.0437,0.0429,0.0443,0.0431,0.0437,0.0425,0.0394,0.0367,0.0394,0.0323,0.032,0.032,0.0311,0.0368,0.0284,0.0283,0.0282,0.0282,0,0.0219,0.0263,0.0322,0.0377,0.0389,0.0413,0.0459,0.0478,0.0493,0.0499,0.0508,0.0494,0.049,0.0466,0.0418,0.0436,0.0382,0.0345,0.0341,0.0337,0.0311,0.0287,0.0275,0.0276,0.0276,0.0277,0.0277,0,0.0233,0.0293,0.0351,0.0372,0.0429,0.0456,0.048,0.0505,0.0529,0.0537,0.0547,0.0535,0.0535,0.0476,0.0413,0.0411,0.0342,0.0326,0.0264,0.0262,0.0284,0.0284,0.0273,0.0273,0.0273,0.0273,0.0273,0,0.0259,0.03,0.0367,0.0403,0.046,0.0486,0.0539,0.0552,0.058,0.0605,0.0583,0.0585,0.0539,0.0496,0.042,0.0342,0.0347,0.0268,0.0247,0.0287,0.0289,0.0279,0.0281,0.027,0.0271,0.0271,0.0272,0,0.0266,0.0311,0.0379,0.0453,0.0473,0.0514,0.0575,0.0611,0.0627,0.0656,0.0657,0.0633,0.0574,0.0511,0.0415,0.0361,0.0273,0.0235,0.0276,0.0258,0.0192,0.0196,0.0151,0.015,0.015,0.0149,0.0149,0,0.0282,0.0323,0.0411,0.0448,0.0484,0.0549,0.0592,0.0632,0.0661,0.0674,0.0677,0.0641,0.0611,0.0478,0.0404,0.0267,0.0245,0.0195,0.0199,0.0199,0.0183,0.0187,0.0191,0.0148,0.0148,0.0148,0.0148,0,0.031,0.034,0.0388,0.0465,0.0522,0.059,0.0643,0.0664,0.0703,0.0722,0.0691,0.0627,0.0565,0.0468,0.0382,0.0276,0.0231,0.0189,0.0189,0.0192,0.0195,0.018,0.0185,0.0146,0.0146,0.0146,0.0146,0,0.0316,0.0348,0.0407,0.047,0.0539,0.0601,0.0636,0.0668,0.0699,0.0706,0.0691,0.0622,0.0599,0.0469,0.0375,0.0296,0.026,0.0221,0.0219,0.022,0.0273,0.0289,0.0252,0,0,0,0,0,0.0328,0.0358,0.041,0.0477,0.0545,0.0594,0.0656,0.0687,0.0717,0.07,0.0699,0.0631,0.051,0.0452,0.0369,0.0348,0.0241,0.0246,0.0193,0.0135,0.0137,0.0189,0,0,0,0,0,0,0.033,0.0376,0.0401,0.0472,0.0521,0.0601,0.0648,0.0673,0.0658,0.0672,0.0608,0.06,0.048,0.0561,0.0365,0.0342,0.0292,0.0199,0.0197,0.0134,0.0136,0.0138,0.0192,0,0,0,0,0]}]]